This is the latest recevied weather packets stored in our database for station/object K0QJ. If no packets are shown the sender has not sent any weather packets the latest 1 day(s).
| Time | Temp. | Humidity | Pressure | Rain* | Wind** | Luminosity | Snow |
|---|---|---|---|---|---|---|---|
| 1778052220 | 7.22° C | 87% | 1013.4 hPa | 0 mm | - | 0 W/m² | - |
| 1778051312 | 7.78° C | 86% | 1013.7 hPa | 0 mm | - | 0 W/m² | - |
| 1778051009 | 7.78° C | 85% | 1013.8 hPa | 0 mm | - | 0 W/m² | - |
| 1778050404 | 7.78° C | 83% | 1013.9 hPa | 0 mm | - | 0 W/m² | - |
| 1778049796 | 7.78° C | 82% | 1014.4 hPa | 0 mm | - | 0 W/m² | - |
| 1778047979 | 8.33° C | 80% | 1014.3 hPa | 0 mm | - | 0 W/m² | - |
| 1778047375 | 8.33° C | 78% | 1014.6 hPa | 0 mm | - | 0 W/m² | - |
| 1778047071 | 8.33° C | 79% | 1014.6 hPa | 0 mm | - | 0 W/m² | - |
| 1778046768 | 8.33° C | 79% | 1014.5 hPa | 0 mm | - | 0 W/m² | - |
| 1778046465 | 8.33° C | 78% | 1014.4 hPa | 0 mm | - | 0 W/m² | - |
| 1778046162 | 8.89° C | 79% | 1014.3 hPa | 0 mm | - | 0 W/m² | - |
| 1778045254 | 8.89° C | 77% | 1014.3 hPa | 0 mm | - | 0 W/m² | - |
| 1778044650 | 8.89° C | 75% | 1014.4 hPa | 0 mm | - | 0 W/m² | - |
| 1778044346 | 8.89° C | 75% | 1014.3 hPa | 0 mm | - | 0 W/m² | - |
| 1778043438 | 8.89° C | 76% | 1014.3 hPa | 0 mm | - | 0 W/m² | - |
| 1778042227 | 9.44° C | 75% | 1013.9 hPa | 0 mm | - | 0 W/m² | - |
| 1778041321 | 10° C | 70% | 1013.9 hPa | 0 mm | - | 0 W/m² | - |
| 1778040716 | 10.56° C | 76% | 1013.9 hPa | 0 mm | - | 0 W/m² | - |
| 1778040413 | 10.56° C | 75% | 1013.2 hPa | 0 mm | - | 0 W/m² | - |
| 1778040110 | 10° C | 77% | 1013.1 hPa | 0 mm | - | 0 W/m² | - |
| 1778039807 | 10° C | 78% | 1013.1 hPa | 0 mm | - | 0 W/m² | - |
| 1778039504 | 10° C | 78% | 1013.3 hPa | 0 mm | - | 0 W/m² | - |
| 1778038898 | 10° C | 77% | 1013 hPa | 0 mm | - | 0 W/m² | - |
| 1778038595 | 10° C | 77% | 1013 hPa | 0 mm | - | 0 W/m² | - |
| 1778038292 | 10° C | 78% | 1012.7 hPa | 0 mm | - | 0 W/m² | - |
* Rain latest hour (hover to see other rain measurements)
** Current wind speed in m/s (hover to see current wind gust speed)